This demonstration page uses our WeatherBlox Daily Observations layout. Learn more.

39.92423, -83.80882

Hourly Observations for September 2, 2019

Temp ( °F °C ) Dew Point ( °F °C ) Humidity (%) Winds ( mph kmh ) Pressure ( in mb ) Visibility ( mi km ) Precip ( " mm )
12:56 am 00:56 Mostly Clear 66 18.9 66 18.9 100 100 Calm 30.06 1018 10 16.09344 0 0
1:56 am 01:56 Mostly Cloudy 66 18.9 66 18.9 100 100 Calm 30.03 1017 8 12.874752 0 0
2:31 am 02:31 Mostly Cloudy with Mist and Fog 64 18 64 18 100 100 Calm 30.03 1017 2.5 4.02336 0 0
2:39 am 02:39 Partly Cloudy with Mist and Fog 64 18 64 18 100 100 Calm 30.03 1017 6 9.656064 0 0
2:48 am 02:48 Partly Cloudy with Mist and Fog 64 18 64 18 100 100 Calm 30.03 1017 2.5 4.02336 0 0
2:56 am 02:56 Mostly Cloudy 64 17.8 64 17.8 100 100 Calm 30.03 1017 7 11.265408 0 0
3:56 am 03:56 Cloudy with Mist and Fog 66 18.9 66 18.9 100 100 SW 8 13 30.03 1017 5 8.04672 0 0
4:56 am 04:56 Cloudy with Mist and Fog 67 19.4 67 19.4 100 100 NNW 6 9 30.03 1017 5 8.04672 0.001 0.001
5:22 am 05:22 Cloudy with Mist and Fog 66 19 66 19 100 100 NNW 6 9 30.06 1018 5 8.04672 0 0
5:31 am 05:31 Cloudy with Mist and Fog 66 19 66 19 100 100 N 6 9 30.06 1018 5 8.04672 0 0
5:56 am 05:56 Cloudy with Mist and Fog 66 18.9 66 18.9 100 100 N 9 15 30.06 1018 4 6.437376 0 0
6:11 am 06:11 Cloudy with Mist and Fog 66 19 66 19 100 100 N 7 11 30.06 1018 3 4.828032 0 0
6:56 am 06:56 Cloudy with Mist and Fog 65 18.3 65 18.3 100 100 N 3 6 30.06 1018 5 8.04672 0 0
7:29 am 07:29 Cloudy with Mist and Fog 64 18 64 18 100 100 Calm 30.09 1019 3 4.828032 0 0
7:56 am 07:56 Cloudy with Mist and Fog 66 18.9 66 18.9 100 100 NW 3 6 30.09 1019 4 6.437376 0 0
8:11 am 08:11 Cloudy with Mist and Fog 66 19 66 19 100 100 NW 6 9 30.09 1019 3 4.828032 0 0
8:39 am 08:39 Cloudy with Mist and Fog 66 19 66 19 100 100 NW 6 9 30.09 1019 3 4.828032 0 0
8:49 am 08:49 Cloudy with Mist and Fog 66 19 66 19 100 100 NNW 6 9 30.09 1019 4 6.437376 0 0
8:56 am 08:56 Mostly Cloudy with Mist and Fog 67 19.4 67 19.4 100 100 NNW 7 11 30.09 1019 5 8.04672 0 0
9:56 am 09:56 Partly Cloudy 71 21.7 67 19.4 87 87 NNW 8 13 30.09 1019 10 16.09344 0 0
10:04 am 10:04 Mostly Cloudy 72 22 68 20 88 88 N 8 13 30.09 1019 10 16.09344 0 0
10:14 am 10:14 Mostly Cloudy 72 22 68 20 88 88 N 7 11 30.09 1019 10 16.09344 0 0
10:22 am 10:22 Mostly Cloudy 72 22 68 20 88 88 NNW 6 9 30.09 1019 10 16.09344 0 0
10:40 am 10:40 Partly Cloudy 73 23 68 20 83 83 NNW 7 11 30.09 1019 10 16.09344 0 0
10:56 am 10:56 Mostly Cloudy 73 22.8 67 19.4 81 81 NNW 7 11 30.09 1019 10 16.09344 0 0
11:03 am 11:03 Mostly Cloudy 73 23 66 19 78 78 NNW 9 15 30.09 1019 10 16.09344 0 0
11:29 am 11:29 Cloudy 73 23 66 19 78 78 WNW 6 9 30.09 1019 10 16.09344 0 0
11:56 am 11:56 Cloudy 73 22.8 67 19.4 81 81 NW 9 15 30.09 1019 10 16.09344 0 0
12:10 pm 12:10 Cloudy 73 23 66 19 78 78 WNW 10 17 30.09 1019 10 16.09344 0 0
12:56 pm 12:56 Cloudy 75 23.9 65 18.3 71 71 VRB 6 9 30.09 1019 10 16.09344 0 0
1:28 pm 13:28 Cloudy 75 24 66 19 74 74 WNW 6 9 30.09 1019 10 16.09344 0 0
1:56 pm 13:56 Mostly Cloudy 78 25.6 65 18.3 64 64 VRB 7 11 30.09 1019 10 16.09344 0 0
2:56 pm 14:56 Mostly Sunny 79 26.1 64 17.8 60 60 NNW 6 9 30.06 1018 10 16.09344 0 0
3:56 pm 15:56 Partly Cloudy 81 27.2 63 17.2 54 54 WNW 9 15 30.06 1018 10 16.09344 0 0
4:56 pm 16:56 Sunny 79 26.1 64 17.8 60 60 N 8 13 30.06 1018 10 16.09344 0 0
5:56 pm 17:56 Mostly Sunny 79 26.1 63 17.2 58 58 N 8 13 30.06 1018 10 16.09344 0 0
6:56 pm 18:56 Sunny 77 25 64 17.8 64 64 NNW 8 13 30.06 1018 10 16.09344 0 0
7:56 pm 19:56 Sunny 73 22.8 64 17.8 74 74 NNW 7 11 30.06 1018 10 16.09344 0 0
8:56 pm 20:56 Clear 69 20.6 64 17.8 84 84 N 6 9 30.06 1018 10 16.09344 0 0
9:56 pm 21:56 Clear 68 20 63 17.2 84 84 N 5 7 30.06 1018 10 16.09344 0 0
10:56 pm 22:56 Clear 65 18.3 63 17.2 93 93 Calm 30.09 1019 10 16.09344 0 0
11:56 pm 23:56 Clear 63 17.2 63 17.2 100 100 Calm 30.09 1019 10 16.09344 0 0

Powered by AerisWeather